Wind_Speed
5 5 4 4 4 5 6 6 6 6 6 7 8 8 8 8 9 9 8 7 7 6 7 8 8 9 11 12 14 15 17 20 21 22 23 26 29 31 35 36 38 39 41 44
5 4 4 4 3 4 5 6 6 6 6 7 8 8 8 8 9 9 9 8 8 7 8 8 9 11 12 12 14 17 19 20 21 22 23 24 26 27 30 33 36 38 39 42
4 3 4 4 3 2 3 4 5 6 6 6 7 7 8 8 9 9 10 9 9 8 9 9 10 11 13 14 15 17 19 20 21 22 24 26 28 29 31 32 34 36 39 41
3 3 3 2 1 1 2 4 5 6 6 6 6 7 8 9 9 10 11 11 11 11 11 12 13 14 15 17 18 20 22 23 24 24 26 28 30 31 33 34 35 35 37 39
4 3 3 2 1 1 2 4 5 6 6 7 7 7 8 9 11 12 13 14 14 15 15 16 16 17 18 20 21 23 24 25 26 28 29 30 31 32 33 35 36 36 38 40
4 4 3 2 2 2 3 4 5 6 7 8 9 9 9 10 11 13 14 15 17 18 18 19 19 19 20 21 23 24 25 26 28 29 30 31 32 32 34 35 37 37 38 39
6 5 5 4 3 4 4 5 6 7 8 9 10 11 12 12 13 14 16 17 18 18 19 20 21 21 22 23 25 25 26 26 27 28 29 30 31 32 34 35 36 37 39 40
8 7 7 6 6 6 6 7 7 8 10 11 12 13 13 14 15 16 18 19 20 20 20 22 23 23 24 25 26 26 26 26 27 28 30 31 32 34 35 35 34 35 37 38
10 9 9 8 9 9 9 9 9 10 11 13 14 14 15 16 17 18 19 21 22 23 24 24 25 26 26 26 26 26 26 27 28 29 29 31 32 34 35 36 36 36 36 38
11 11 11 11 11 11 11 11 11 12 13 14 15 16 17 18 18 20 21 22 24 25 26 27 27 27 28 28 27 27 26 26 26 28 30 31 32 32 33 35 35 35 36 38
14 13 13 13 13 13 14 14 14 14 15 16 17 18 18 20 20 22 23 24 26 27 29 29 30 30 30 29 29 29 28 28 28 29 30 31 32 33 34 34 35 35 35 37
16 16 15 15 15 15 15 16 16 17 17 18 19 20 21 22 23 24 25 26 28 29 30 31 31 31 31 31 31 30 30 30 30 31 31 32 33 34 34 35 35 35 36 36
18 18 17 17 18 18 18 18 19 19 19 20 21 22 23 24 25 26 27 28 29 30 31 32 32 33 33 33 33 32 32 32 33 32 32 32 32 33 34 35 35 36 37 37
21 20 19 19 19 19 20 20 21 21 21 22 23 24 26 27 27 28 29 30 31 32 32 33 34 34 34 34 34 35 35 35 35 35 35 34 33 34 34 35 36 36 37 38
22 22 21 21 21 22 22 22 23 23 24 25 26 27 28 29 30 31 31 32 33 33 34 35 36 36 35 35 35 36 36 36 36 36 36 35 35 35 36 36 37 36 37 38
24 23 23 24 24 25 25 25 25 25 27 28 28 29 30 31 32 33 33 34 35 35 36 37 38 38 38 37 37 37 37 37 37 36 36 36 36 36 36 36 37 37 37 37
25 25 25 26 26 26 27 27 28 28 30 31 31 32 32 32 33 34 35 36 36 37 38 39 39 39 39 39 39 39 39 38 37 37 37 36 36 36 36 36 36 35 36 36
27 27 27 27 28 28 28 29 30 31 31 32 32 33 33 34 34 35 36 37 38 38 39 40 40 40 40 40 40 40 40 39 38 37 36 36 35 35 35 35 35 35 35 35
29 29 29 30 30 30 31 31 32 33 33 33 33 34 34 35 36 37 37 38 39 40 41 41 41 40 40 40 40 40 40 39 38 36 36 35 35 35 35 34 34 34 34 34
31 31 31 31 31 32 32 33 33 34 34 34 35 35 36 36 37 38 38 39 40 41 41 41 40 40 40 40 39 39 39 38 37 35 35 34 34 34 33 33 33 33 34 34
32 32 32 32 32 33 33 34 34 34 34 35 35 36 37 38 38 39 39 40 40 41 40 40 39 38 38 39 39 38 38 37 36 35 34 33 33 32 32 31 31 32 32 32
33 34 34 33 34 34 34 35 35 35 35 36 36 37 38 39 39 40 40 41 41 40 39 39 38 38 38 39 38 37 37 36 35 34 33 32 32 31 31 30 30 30 30 30
34 35 35 34 34 34 35 35 36 36 36 36 37 38 38 39 40 41 41 41 41 39 39 39 39 38 38 38 38 36 35 34 33 32 32 31 31 31 30 29 29 29 29 28
34 35 35 34 34 34 35 35 35 36 36 36 37 37 38 39 40 41 41 41 40 38 38 38 38 38 38 37 36 35 33 32 32 32 31 31 30 29 29 28 28 28 28 28
34 35 35 35 35 35 36 36 36 36 36 37 37 38 39 40 40 40 40 39 39 38 38 38 38 38 37 36 34 33 32 32 31 31 30 29 29 28 27 27 27 27 27 27
35 36 36 36 36 36 36 36 36 37 37 37 38 38 39 39 39 39 39 38 38 37 37 37 37 37 36 34 33 33 32 31 30 30 29 28 28 27 26 26 26 25 25 25
36 36 36 36 36 36 37 37 37 37 37 38 38 38 39 39 39 39 38 38 37 37 37 36 36 35 34 33 33 32 32 31 30 29 28 27 26 25 25 24 24 24 24 24
Wind_Direction
127 127 121 101 80 66 56 49 45 44 46 42 38 32 27 21 18 15 6 350 345 339 331 318 300 296 293 280 268 262 261 260 257 257 253 246 242 241 243 246 246 247 247 248
132 124 128 117 90 64 47 36 38 41 38 33 30 27 21 12 8 6 3 350 341 335 333 325 310 298 292 284 270 265 264 265 262 257 252 246 244 244 245 246 245 247 248 249
133 129 128 130 116 72 37 26 26 24 17 13 17 15 10 4 0 355 353 346 341 333 327 322 312 300 294 290 279 270 268 265 262 259 253 249 248 249 248 249 248 250 251 251
158 152 156 146 141 59 20 13 12 11 6 359 354 356 357 354 352 348 345 340 336 328 322 315 309 305 299 294 288 282 276 270 266 261 256 252 252 253 252 253 252 253 251 250
189 183 181 202 246 310 341 350 355 356 353 347 344 343 340 339 340 338 337 334 331 325 321 315 308 303 300 297 294 288 281 276 271 265 259 256 257 257 256 254 253 254 253 253
218 215 220 234 259 300 325 332 332 337 340 341 340 339 337 334 335 334 336 335 332 328 324 319 313 308 303 300 295 290 285 280 276 269 263 258 258 258 257 257 256 256 256 256
234 237 245 256 270 291 309 319 320 328 332 334 334 334 334 330 329 330 333 333 333 329 325 320 316 312 308 303 298 293 288 283 279 273 266 261 259 259 259 260 259 258 259 259
240 246 251 260 272 284 297 306 312 319 324 327 328 328 329 328 327 329 330 329 328 326 324 319 316 312 309 306 302 297 291 287 282 277 271 266 263 261 261 262 260 258 259 259
246 252 259 265 273 282 291 299 305 311 317 319 321 321 321 323 324 323 324 325 326 325 322 319 316 313 310 308 306 303 297 291 285 281 275 269 265 266 263 263 262 260 259 257
251 257 262 268 273 280 288 294 299 304 309 313 316 317 317 318 320 321 321 321 321 320 319 318 316 315 315 312 310 307 302 297 290 283 278 275 272 271 269 265 264 264 261 259
253 257 263 270 275 279 284 290 295 299 302 305 309 313 314 315 316 319 320 320 319 317 317 317 317 315 315 313 312 310 306 302 297 290 284 280 277 276 274 272 269 267 266 264
256 258 263 268 274 279 283 287 291 295 299 301 303 306 309 311 313 314 316 318 318 317 316 316 316 316 314 313 312 309 306 303 299 293 288 284 281 278 276 274 273 270 269 268
259 262 265 268 273 278 282 287 290 293 296 299 301 304 306 308 309 309 311 313 314 315 315 315 315 314 313 312 311 310 307 303 299 295 292 289 286 281 277 275 274 272 271 270
260 263 266 268 272 276 281 286 289 292 294 297 300 302 305 306 307 307 308 309 311 312 313 314 314 314 312 309 309 309 307 304 300 297 294 291 287 283 279 276 274 272 272 271
260 262 265 268 272 275 280 285 289 293 296 297 300 302 304 305 306 306 306 306 308 309 310 311 312 313 311 309 308 308 307 305 301 299 296 292 288 285 280 277 274 273 274 272
260 262 265 269 273 277 280 283 287 291 295 297 299 301 303 304 305 306 306 305 306 307 308 309 309 309 309 307 307 306 306 304 302 299 296 294 289 286 282 279 276 274 273 273
261 264 267 271 274 278 281 283 285 289 293 295 298 300 302 304 305 306 306 306 305 306 306 307 307 307 307 306 306 305 304 303 301 300 298 294 289 286 283 280 278 277 276 274
263 266 270 273 276 278 281 283 285 287 291 295 296 298 300 302 303 304 306 306 305 305 306 306 306 306 307 307 305 305 304 303 302 300 298 295 291 287 285 282 278 276 276 274
265 268 271 274 276 278 280 283 285 287 289 292 295 297 299 301 302 304 304 305 306 306 306 306 306 306 307 308 306 305 304 303 302 300 298 295 291 289 287 284 280 277 274 273
267 269 272 275 277 279 281 282 284 286 288 290 294 296 298 300 302 303 304 304 305 307 308 308 308 307 307 308 307 307 306 304 302 301 299 296 292 289 286 284 281 278 276 274
267 270 272 275 277 279 280 282 284 285 287 290 293 296 297 299 301 303 304 304 306 307 307 308 308 308 308 309 309 308 307 305 303 301 300 298 294 290 287 285 282 280 278 276
268 270 273 275 277 279 280 281 282 284 287 289 292 294 297 299 300 302 303 304 305 306 306 307 307 308 308 308 309 308 307 306 304 302 300 298 295 292 289 286 283 281 279 276
270 271 274 276 277 279 280 280 282 284 287 289 292 294 296 298 300 301 302 304 305 305 305 306 307 308 308 308 309 309 307 306 305 304 302 300 296 294 291 288 284 281 279 277
270 272 274 276 278 280 281 281 282 285 287 289 292 294 296 298 299 301 302 303 304 304 305 306 307 307 307 307 308 308 307 306 305 305 303 301 298 295 292 290 286 282 280 278
271 273 274 276 278 280 281 281 282 285 287 289 291 294 296 298 299 301 302 302 303 303 304 305 306 306 307 307 307 307 306 305 304 303 303 302 299 295 292 290 287 283 280 278
272 273 274 277 279 280 280 281 283 285 287 289 291 293 296 298 299 300 300 301 301 302 304 305 305 305 306 307 306 306 306 305 304 304 303 302 300 297 293 291 288 285 282 279
272 273 275 277 279 280 281 283 284 285 287 288 290 292 295 296 297 298 299 299 300 301 302 304 304 305 305 305 306 305 305 304 304 304 303 301 300 297 294 292 290 286 284 281
Height
5645 5645 5645 5645 5644 5643 5642 5641 5640 5639 5636 5635 5633 5632 5630 5629 5628 5626 5625 5623 5622 5620 5619 5619 5618 5617 5617 5617 5617 5618 5619 5620 5621 5622 5624 5626 5628 5631 5634 5636 5638 5640 5642 5644
5645 5645 5645 5645 5644 5643 5642 5641 5640 5638 5637 5635 5633 5631 5630 5628 5627 5625 5623 5621 5620 5618 5617 5616 5615 5614 5613 5612 5612 5612 5613 5613 5613 5614 5616 5617 5619 5621 5624 5626 5627 5628 5630 5632
5646 5645 5645 5645 5645 5644 5643 5641 5640 5638 5637 5635 5633 5631 5630 5628 5626 5624 5622 5620 5618 5616 5615 5614 5612 5611 5609 5608 5607 5606 5606 5605 5605 5606 5607 5609 5611 5612 5614 5616 5617 5618 5619 5620
5645 5646 5645 5647 5644 5644 5642 5641 5640 5638 5636 5634 5632 5631 5629 5626 5624 5622 5620 5618 5616 5613 5612 5610 5608 5606 5604 5602 5601 5599 5598 5597 5597 5597 5598 5599 5601 5602 5604 5605 5606 5607 5608 5609
5645 5644 5645 5645 5643 5642 5642 5640 5639 5637 5635 5633 5631 5629 5627 5625 5622 5620 5617 5615 5612 5610 5608 5605 5603 5600 5598 5595 5593 5591 5589 5588 5587 5587 5588 5589 5590 5591 5593 5594 5595 5596 5597 5598
5643 5643 5643 5645 5643 5641 5641 5639 5638 5636 5634 5632 5629 5628 5626 5623 5620 5617 5615 5612 5608 5605 5602 5600 5597 5594 5591 5588 5585 5583 5581 5579 5578 5577 5577 5579 5580 5581 5582 5583 5584 5585 5585 5586
5642 5641 5642 5642 5641 5640 5640 5639 5636 5634 5632 5630 5627 5625 5623 5620 5617 5614 5611 5608 5605 5602 5598 5595 5591 5588 5585 5581 5578 5575 5572 5570 5568 5567 5568 5568 5569 5570 5571 5572 5573 5573 5574 5574
5639 5640 5642 5639 5638 5638 5638 5635 5633 5632 5630 5627 5625 5622 5620 5617 5614 5611 5608 5605 5602 5598 5594 5590 5587 5583 5579 5574 5570 5567 5564 5561 5559 5558 5558 5558 5559 5559 5560 5561 5561 5561 5561 5561
5638 5640 5638 5636 5636 5635 5634 5632 5631 5629 5627 5625 5622 5619 5617 5614 5611 5608 5605 5602 5598 5594 5589 5585 5581 5576 5572 5568 5563 5559 5556 5553 5551 5550 5549 5548 5549 5549 5549 5549 5548 5548 5549 5549
5634 5634 5634 5633 5632 5631 5630 5629 5627 5626 5624 5621 5619 5616 5613 5610 5607 5604 5601 5597 5593 5589 5584 5580 5575 5570 5565 5561 5556 5552 5549 5546 5543 5541 5540 5539 5539 5538 5537 5537 5536 5536 5536 5536
5629 5630 5629 5629 5628 5627 5626 5625 5623 5621 5619 5617 5614 5612 5609 5606 5603 5600 5596 5593 5588 5584 5579 5574 5569 5564 5559 5554 5550 5545 5542 5538 5535 5532 5530 5528 5527 5527 5526 5525 5524 5525 5524 5524
5625 5625 5625 5625 5623 5622 5621 5620 5618 5616 5614 5612 5609 5606 5603 5600 5597 5594 5590 5586 5582 5577 5572 5567 5562 5557 5552 5547 5543 5538 5534 5531 5527 5524 5521 5519 5517 5516 5514 5513 5512 5512 5512 5513
5619 5618 5618 5618 5617 5616 5615 5614 5612 5610 5608 5606 5603 5600 5597 5594 5591 5587 5584 5579 5575 5570 5565 5560 5555 5550 5545 5540 5535 5531 5527 5523 5519 5515 5512 5510 5507 5505 5503 5502 5501 5501 5501 5501
5612 5612 5612 5611 5611 5610 5608 5607 5605 5603 5601 5599 5596 5593 5590 5587 5583 5580 5576 5572 5567 5563 5558 5553 5547 5542 5537 5532 5527 5523 5518 5514 5510 5506 5503 5500 5497 5495 5493 5492 5491 5490 5489 5489
5604 5604 5604 5604 5603 5602 5601 5600 5598 5596 5594 5591 5589 5585 5582 5579 5575 5571 5567 5563 5559 5554 5549 5544 5539 5534 5528 5523 5518 5514 5509 5505 5500 5496 5492 5489 5486 5484 5482 5481 5480 5479 5478 5477
5597 5597 5596 5596 5595 5594 5593 5592 5590 5588 5586 5583 5580 5577 5573 5569 5565 5561 5557 5553 5549 5544 5540 5535 5530 5525 5519 5514 5509 5504 5500 5495 5491 5487 5483 5479 5475 5473 5471 5469 5468 5467 5466 5465
5588 5588 5587 5587 5586 5585 5584 5583 5581 5579 5576 5574 5570 5567 5563 5559 5555 5551 5547 5542 5538 5534 5529 5524 5519 5514 5509 5504 5499 5494 5489 5485 5480 5476 5472 5468 5465 5462 5460 5458 5457 5455 5454 5453
5579 5579 5578 5578 5577 5576 5575 5573 5571 5569 5566 5563 5560 5557 5553 5549 5545 5541 5537 5532 5527 5523 5518 5513 5508 5503 5498 5493 5488 5483 5478 5473 5469 5465 5461 5457 5454 5452 5449 5447 5445 5444 5443 5442
5569 5569 5569 5568 5566 5565 5564 5562 5560 5558 5556 5553 5550 5547 5543 5539 5535 5531 5526 5522 5517 5512 5507 5502 5496 5491 5486 5481 5476 5471 5466 5462 5458 5454 5450 5446 5443 5440 5438 5436 5434 5433 5432 5431
5559 5559 5558 5557 5556 5555 5553 5551 5549 5547 5545 5542 5539 5536 5532 5528 5524 5520 5515 5511 5506 5501 5496 5490 5485 5480 5475 5470 5465 5460 5455 5451 5447 5442 5438 5435 5432 5429 5427 5425 5423 5421 5420 5419
5549 5548 5547 5546 5545 5544 5542 5540 5538 5536 5533 5531 5528 5524 5521 5517 5513 5509 5504 5500 5495 5489 5484 5479 5474 5469 5464 5460 5454 5449 5445 5440 5436 5432 5428 5424 5421 5419 5416 5414 5412 5410 5409 5408
5537 5537 5536 5534 5533 5532 5530 5528 5526 5524 5522 5519 5516 5513 5509 5505 5501 5497 5492 5488 5483 5478 5473 5468 5463 5459 5454 5449 5444 5439 5434 5430 5425 5421 5417 5414 5411 5408 5406 5404 5402 5400 5399 5397
5526 5525 5523 5522 5521 5519 5518 5516 5514 5512 5509 5507 5504 5501 5497 5493 5489 5485 5481 5476 5471 5467 5462 5458 5453 5448 5443 5438 5433 5429 5424 5419 5415 5411 5407 5404 5401 5398 5396 5394 5392 5390 5389 5388
5514 5513 5511 5510 5509 5507 5506 5504 5502 5500 5497 5495 5492 5489 5485 5481 5477 5473 5468 5464 5460 5455 5451 5447 5442 5437 5433 5428 5423 5419 5414 5410 5406 5402 5398 5395 5392 5389 5386 5384 5382 5381 5379 5378
5502 5501 5500 5498 5497 5495 5494 5492 5490 5488 5485 5483 5480 5477 5473 5469 5465 5461 5457 5452 5448 5444 5440 5436 5431 5427 5422 5418 5413 5409 5405 5401 5397 5393 5389 5386 5383 5380 5378 5375 5373 5372 5370 5369
5490 5489 5488 5486 5485 5483 5481 5479 5478 5475 5473 5471 5468 5464 5461 5457 5453 5449 5445 5441 5437 5433 5429 5425 5420 5416 5412 5408 5403 5399 5395 5391 5388 5384 5380 5377 5374 5371 5369 5367 5365 5363 5361 5360
5478 5477 5476 5474 5473 5471 5469 5467 5465 5463 5461 5458 5456 5452 5449 5445 5441 5437 5433 5430 5426 5422 5418 5414 5410 5406 5402 5398 5394 5390 5386 5382 5379 5375 5372 5369 5366 5363 5361 5358 5356 5355 5353 5352